Time,TemperatureF,DewpointF,PressureIn,WindDirection,WindDirectionDegrees,WindSpeedMPH,WindSpeedGustMPH,Humidity,HourlyPrecipIn,Conditions,Clouds,dailyrainin,SoftwareType,DateUTC
2013-10-20 00:09:00,44.7,39.0,29.94,South,189,0.0,7.0,79,0.00,,,0.00,weatherlink.com 1.10,2013-10-20 05:09:00,
2013-10-20 00:24:00,44.4,38.0,29.94,SSW,211,2.0,5.0,79,0.00,,,0.00,weatherlink.com 1.10,2013-10-20 05:24:00,
2013-10-20 00:39:00,43.9,38.0,29.94,SSW,201,0.0,6.0,80,0.00,,,0.00,weatherlink.com 1.10,2013-10-20 05:39:00,
2013-10-20 00:54:00,43.5,38.0,29.94,SSW,209,1.0,5.0,81,0.00,,,0.00,weatherlink.com 1.10,2013-10-20 05:54:00,
2013-10-20 01:09:00,43.1,38.0,29.93,SSW,192,3.0,6.0,82,0.00,,,0.00,weatherlink.com 1.10,2013-10-20 06:09:00,
2013-10-20 01:24:00,42.9,38.0,29.93,SSW,205,1.0,6.0,83,0.00,,,0.00,weatherlink.com 1.10,2013-10-20 06:24:00,
2013-10-20 01:39:00,42.5,38.0,29.93,SW,219,2.0,5.0,84,0.00,,,0.00,weatherlink.com 1.10,2013-10-20 06:39:00,
2013-10-20 01:54:00,42.0,38.0,29.93,SSW,205,1.0,5.0,84,0.00,,,0.00,weatherlink.com 1.10,2013-10-20 06:54:00,
2013-10-20 02:09:00,42.1,38.0,29.93,SSW,205,1.0,6.0,85,0.00,,,0.00,weatherlink.com 1.10,2013-10-20 07:09:00,
2013-10-20 02:24:00,42.0,38.0,29.93,SSW,206,1.0,6.0,85,0.00,,,0.00,weatherlink.com 1.10,2013-10-20 07:24:00,
2013-10-20 02:39:00,42.0,38.0,29.92,SSW,206,0.0,4.0,85,0.00,,,0.00,weatherlink.com 1.10,2013-10-20 07:39:00,
2013-10-20 02:54:00,41.9,38.0,29.92,SSW,206,3.0,6.0,85,0.00,,,0.00,weatherlink.com 1.10,2013-10-20 07:54:00,
2013-10-20 03:09:00,41.8,38.0,29.91,SSW,206,2.0,6.0,85,0.00,,,0.00,weatherlink.com 1.10,2013-10-20 08:09:00,
2013-10-20 03:24:00,41.8,38.0,29.91,SSW,206,2.0,6.0,86,0.00,,,0.00,weatherlink.com 1.10,2013-10-20 08:24:00,
2013-10-20 03:39:00,41.7,38.0,29.90,SSW,206,3.0,4.0,86,0.00,,,0.00,weatherlink.com 1.10,2013-10-20 08:39:00,
2013-10-20 03:54:00,41.6,38.0,29.90,SSW,206,0.0,5.0,86,0.00,,,0.00,weatherlink.com 1.10,2013-10-20 08:54:00,
2013-10-20 04:09:00,41.3,37.0,29.90,SSW,206,1.0,4.0,86,0.00,,,0.00,weatherlink.com 1.10,2013-10-20 09:09:00,
2013-10-20 04:24:00,41.0,37.0,29.90,SSW,206,3.0,4.0,86,0.00,,,0.00,weatherlink.com 1.10,2013-10-20 09:24:00,
2013-10-20 04:39:00,41.1,37.0,29.89,SSW,206,1.0,5.0,86,0.00,,,0.00,weatherlink.com 1.10,2013-10-20 09:39:00,
2013-10-20 04:54:00,40.8,37.0,29.89,SSW,206,1.0,5.0,87,0.00,,,0.00,weatherlink.com 1.10,2013-10-20 09:54:00,
2013-10-20 05:09:00,40.6,37.0,29.90,SSW,206,0.0,4.0,87,0.00,,,0.00,weatherlink.com 1.10,2013-10-20 10:09:00,
2013-10-20 05:24:00,40.4,37.0,29.89,SSW,206,0.0,4.0,88,0.00,,,0.00,weatherlink.com 1.10,2013-10-20 10:24:00,
2013-10-20 05:39:00,40.5,37.0,29.89,SSW,206,1.0,4.0,88,0.00,,,0.00,weatherlink.com 1.10,2013-10-20 10:39:00,
2013-10-20 05:55:00,40.4,37.0,29.89,SSW,206,1.0,5.0,88,0.00,,,0.00,weatherlink.com 1.10,2013-10-20 10:55:00,
2013-10-20 06:10:00,40.4,37.0,29.89,SSW,206,3.0,6.0,88,0.00,,,0.00,weatherlink.com 1.10,2013-10-20 11:10:00,
2013-10-20 06:25:00,40.3,37.0,29.89,SSW,206,2.0,5.0,88,0.00,,,0.00,weatherlink.com 1.10,2013-10-20 11:25:00,
2013-10-20 06:40:00,40.1,37.0,29.89,SSW,206,2.0,5.0,88,0.00,,,0.00,weatherlink.com 1.10,2013-10-20 11:40:00,
2013-10-20 06:55:00,40.1,37.0,29.89,SSW,206,0.0,5.0,89,0.00,,,0.00,weatherlink.com 1.10,2013-10-20 11:55:00,
2013-10-20 07:10:00,40.3,37.0,29.89,SSW,205,0.0,7.0,89,0.00,,,0.00,weatherlink.com 1.10,2013-10-20 12:10:00,
2013-10-20 07:25:00,40.8,38.0,29.89,SW,215,2.0,9.0,88,0.00,,,0.00,weatherlink.com 1.10,2013-10-20 12:25:00,
2013-10-20 07:40:00,41.6,38.0,29.89,South,190,5.0,8.0,87,0.00,,,0.00,weatherlink.com 1.10,2013-10-20 12:40:00,
2013-10-20 07:55:00,42.8,39.0,29.90,SW,220,4.0,7.0,85,0.00,,,0.00,weatherlink.com 1.10,2013-10-20 12:55:00,
2013-10-20 08:10:00,44.3,39.0,29.90,SSW,194,2.0,9.0,83,0.00,,,0.00,weatherlink.com 1.10,2013-10-20 13:10:00,
2013-10-20 08:25:00,45.5,40.0,29.91,SW,221,5.0,8.0,82,0.00,,,0.00,weatherlink.com 1.10,2013-10-20 13:25:00,
2013-10-20 08:40:00,47.0,41.0,29.91,South,181,4.0,9.0,79,0.00,,,0.00,weatherlink.com 1.10,2013-10-20 13:40:00,
2013-10-20 08:55:00,48.3,41.0,29.91,SW,218,7.0,10.0,77,0.00,,,0.00,weatherlink.com 1.10,2013-10-20 13:55:00,
2013-10-20 09:10:00,50.3,42.0,29.91,SW,216,4.0,9.0,74,0.00,,,0.00,weatherlink.com 1.10,2013-10-20 14:10:00,
2013-10-20 09:25:00,52.1,43.0,29.91,SW,233,8.0,12.0,71,0.00,,,0.00,weatherlink.com 1.10,2013-10-20 14:25:00,
2013-10-20 09:40:00,53.2,43.0,29.91,SW,222,9.0,14.0,68,0.00,,,0.00,weatherlink.com 1.10,2013-10-20 14:40:00,
2013-10-20 09:55:00,54.6,43.0,29.90,WSW,252,8.0,11.0,66,0.00,,,0.00,weatherlink.com 1.10,2013-10-20 14:55:00,
2013-10-20 10:10:00,55.8,44.0,29.90,SW,225,3.0,9.0,65,0.00,,,0.00,weatherlink.com 1.10,2013-10-20 15:10:00,
2013-10-20 10:25:00,56.5,43.0,29.90,SW,229,11.0,12.0,62,0.00,,,0.00,weatherlink.com 1.10,2013-10-20 15:25:00,
2013-10-20 10:40:00,57.6,44.0,29.90,South,188,6.0,11.0,62,0.00,,,0.00,weatherlink.com 1.10,2013-10-20 15:40:00,
2013-10-20 10:56:00,59.2,45.0,29.89,SW,221,6.0,12.0,60,0.00,,,0.00,weatherlink.com 1.10,2013-10-20 15:56:00,
2013-10-20 11:11:00,60.6,45.0,29.89,SW,221,5.0,11.0,57,0.00,,,0.00,weatherlink.com 1.10,2013-10-20 16:11:00,
2013-10-20 11:26:00,61.0,45.0,29.89,SW,236,4.0,14.0,55,0.00,,,0.00,weatherlink.com 1.10,2013-10-20 16:26:00,
2013-10-20 11:41:00,62.1,45.0,29.89,SSW,211,5.0,14.0,54,0.00,,,0.00,weatherlink.com 1.10,2013-10-20 16:41:00,
2013-10-20 11:56:00,63.6,45.0,29.88,South,182,5.0,10.0,51,0.00,,,0.00,weatherlink.com 1.10,2013-10-20 16:56:00,
2013-10-20 12:11:00,64.3,45.0,29.88,South,190,9.0,16.0,50,0.00,,,0.00,weatherlink.com 1.10,2013-10-20 17:11:00,
2013-10-20 12:26:00,65.6,45.0,29.87,SSW,196,11.0,13.0,48,0.00,,,0.00,weatherlink.com 1.10,2013-10-20 17:26:00,
2013-10-20 12:41:00,66.0,44.0,29.86,South,187,5.0,14.0,46,0.00,,,0.00,weatherlink.com 1.10,2013-10-20 17:41:00,
2013-10-20 12:56:00,66.6,45.0,29.86,WSW,250,12.0,17.0,46,0.00,,,0.00,weatherlink.com 1.10,2013-10-20 17:56:00,
2013-10-20 13:11:00,67.6,45.0,29.85,SSW,192,6.0,12.0,44,0.00,,,0.00,weatherlink.com 1.10,2013-10-20 18:11:00,
2013-10-20 13:26:00,68.1,46.0,29.84,SW,216,7.0,17.0,45,0.00,,,0.00,weatherlink.com 1.10,2013-10-20 18:26:00,
2013-10-20 13:41:00,68.5,44.0,29.84,SSW,194,7.0,17.0,42,0.00,,,0.00,weatherlink.com 1.10,2013-10-20 18:41:00,
2013-10-20 13:56:00,69.4,44.0,29.83,SSW,208,3.0,14.0,40,0.00,,,0.00,weatherlink.com 1.10,2013-10-20 18:56:00,
2013-10-20 14:11:00,69.8,44.0,29.83,South,182,2.0,17.0,40,0.00,,,0.00,weatherlink.com 1.10,2013-10-20 19:11:00,
2013-10-20 14:26:00,70.8,45.0,29.83,SSW,212,9.0,21.0,40,0.00,,,0.00,weatherlink.com 1.10,2013-10-20 19:26:00,
2013-10-20 14:41:00,70.8,45.0,29.82,SSW,198,2.0,18.0,40,0.00,,,0.00,weatherlink.com 1.10,2013-10-20 19:41:00,
2013-10-20 14:56:00,70.0,44.0,29.82,South,174,5.0,17.0,39,0.00,,,0.00,weatherlink.com 1.10,2013-10-20 19:56:00,
2013-10-20 15:11:00,71.1,43.0,29.82,West,268,6.0,14.0,37,0.00,,,0.00,weatherlink.com 1.10,2013-10-20 20:11:00,
2013-10-20 15:26:00,71.1,43.0,29.82,WSW,238,3.0,13.0,36,0.00,,,0.00,weatherlink.com 1.10,2013-10-20 20:26:00,
2013-10-20 15:41:00,70.9,43.0,29.82,South,189,8.0,16.0,36,0.00,,,0.00,weatherlink.com 1.10,2013-10-20 20:41:00,
2013-10-20 15:56:00,70.3,43.0,29.82,West,264,11.0,22.0,37,0.00,,,0.00,weatherlink.com 1.10,2013-10-20 20:56:00,
2013-10-20 16:12:00,70.1,43.0,29.82,SW,219,8.0,17.0,37,0.00,,,0.00,weatherlink.com 1.10,2013-10-20 21:12:00,
2013-10-20 16:27:00,68.6,43.0,29.83,South,174,4.0,15.0,39,0.00,,,0.00,weatherlink.com 1.10,2013-10-20 21:27:00,
2013-10-20 16:42:00,67.8,43.0,29.83,WSW,257,5.0,15.0,40,0.00,,,0.00,weatherlink.com 1.10,2013-10-20 21:42:00,
2013-10-20 16:57:00,67.8,42.0,29.83,SW,229,5.0,17.0,39,0.00,,,0.00,weatherlink.com 1.10,2013-10-20 21:57:00,
2013-10-20 17:12:00,67.5,41.0,29.83,WSW,241,7.0,17.0,38,0.00,,,0.00,weatherlink.com 1.10,2013-10-20 22:12:00,
2013-10-20 17:27:00,67.2,41.0,29.83,SW,223,9.0,15.0,39,0.00,,,0.00,weatherlink.com 1.10,2013-10-20 22:27:00,
2013-10-20 17:42:00,66.9,42.0,29.83,WSW,252,6.0,14.0,40,0.00,,,0.00,weatherlink.com 1.10,2013-10-20 22:42:00,
2013-10-20 17:57:00,65.8,43.0,29.83,South,184,3.0,9.0,43,0.00,,,0.00,weatherlink.com 1.10,2013-10-20 22:57:00,
2013-10-20 18:12:00,64.5,42.0,29.84,SW,215,3.0,8.0,44,0.00,,,0.00,weatherlink.com 1.10,2013-10-20 23:12:00,
2013-10-20 18:27:00,63.8,42.0,29.84,SSW,210,2.0,8.0,45,0.00,,,0.00,weatherlink.com 1.10,2013-10-20 23:27:00,
2013-10-20 18:42:00,62.7,41.0,29.84,SSW,195,3.0,7.0,46,0.00,,,0.00,weatherlink.com 1.10,2013-10-20 23:42:00,
2013-10-20 18:57:00,61.3,41.0,29.84,SW,221,2.0,3.0,48,0.00,,,0.00,weatherlink.com 1.10,2013-10-20 23:57:00,
2013-10-20 19:12:00,59.7,41.0,29.84,SW,223,1.0,3.0,51,0.00,,,0.00,weatherlink.com 1.10,2013-10-21 00:12:00,
2013-10-20 19:27:00,58.4,41.0,29.84,SSW,196,2.0,7.0,53,0.00,,,0.00,weatherlink.com 1.10,2013-10-21 00:27:00,
2013-10-20 19:42:00,57.7,41.0,29.85,SSW,202,1.0,4.0,54,0.00,,,0.00,weatherlink.com 1.10,2013-10-21 00:42:00,
2013-10-20 19:57:00,56.9,41.0,29.86,SSW,192,1.0,4.0,56,0.00,,,0.00,weatherlink.com 1.10,2013-10-21 00:57:00,
2013-10-20 20:12:00,55.9,41.0,29.86,SSW,198,2.0,4.0,58,0.00,,,0.00,weatherlink.com 1.10,2013-10-21 01:12:00,
2013-10-20 20:27:00,54.9,41.0,29.86,SW,221,1.0,3.0,60,0.00,,,0.00,weatherlink.com 1.10,2013-10-21 01:27:00,
2013-10-20 20:42:00,54.2,41.0,29.86,SW,218,2.0,5.0,62,0.00,,,0.00,weatherlink.com 1.10,2013-10-21 01:42:00,
2013-10-20 20:57:00,53.6,41.0,29.87,SSW,196,2.0,5.0,63,0.00,,,0.00,weatherlink.com 1.10,2013-10-21 01:57:00,
2013-10-20 21:12:00,54.1,42.0,29.87,SSW,200,1.0,7.0,63,0.00,,,0.00,weatherlink.com 1.10,2013-10-21 02:12:00,
2013-10-20 21:27:00,54.0,42.0,29.88,South,184,1.0,3.0,63,0.00,,,0.00,weatherlink.com 1.10,2013-10-21 02:27:00,
2013-10-20 21:42:00,53.6,42.0,29.88,SSW,213,1.0,4.0,64,0.00,,,0.00,weatherlink.com 1.10,2013-10-21 02:42:00,
2013-10-20 21:57:00,53.1,42.0,29.89,SSW,213,0.0,5.0,66,0.00,,,0.00,weatherlink.com 1.10,2013-10-21 02:57:00,
2013-10-20 22:12:00,53.0,42.0,29.89,SSW,213,0.0,5.0,67,0.00,,,0.00,weatherlink.com 1.10,2013-10-21 03:12:00,
2013-10-20 22:27:00,53.7,43.0,29.89,SSW,198,1.0,5.0,67,0.00,,,0.00,weatherlink.com 1.10,2013-10-21 03:27:00,
2013-10-20 22:42:00,54.5,44.0,29.89,SSW,195,1.0,8.0,67,0.00,,,0.00,weatherlink.com 1.10,2013-10-21 03:42:00,
2013-10-20 22:57:00,54.6,44.0,29.89,SW,221,2.0,8.0,67,0.00,,,0.00,weatherlink.com 1.10,2013-10-21 03:57:00,
2013-10-20 23:12:00,54.3,44.0,29.90,SSW,200,3.0,8.0,68,0.00,,,0.00,weatherlink.com 1.10,2013-10-21 04:12:00,
2013-10-20 23:27:00,54.0,44.0,29.90,SSW,209,3.0,6.0,69,0.00,,,0.00,weatherlink.com 1.10,2013-10-21 04:27:00,
2013-10-20 23:42:00,54.0,44.0,29.90,SW,227,4.0,7.0,69,0.00,,,0.00,weatherlink.com 1.10,2013-10-21 04:42:00,
2013-10-20 23:57:00,53.5,44.0,29.90,SW,215,2.0,6.0,70,0.00,,,0.00,weatherlink.com 1.10,2013-10-21 04:57:00,